Time,B instrument,Bx,By,Bz,sigma B,Ion instrument,Status,Tp_par,Tp_perp,carrot,r_sun,clat,clong,earth_he_angle,n_p,vp_x,vp_y,vp_z,vth_p_par,vth_p_perp
1980-02-07 00:00:26,1,-3.74175,0.813592,5.27476,0.567107,1,1,21049.3,19612.3,1691,0.96216273,1.234314,106.98657,288.63501,2.67143,339.38,23.9153,19.7909,18.6413,17.9938
1980-02-07 00:01:06,1,-3.52197,1.00152,5.35379,0.635527,1,1,23014.9,21712.4,1691,0.96216458,1.234251,106.97852,288.63477,2.67452,342.634,22.9167,23.6077,19.4923,18.9327
1980-02-07 00:01:47,1,-3.70989,0.81978,5.1978,0.512536,1,1,19588.5,12614.8,1691,0.96216458,1.234251,106.97461,288.63477,2.53296,338.006,23.9863,18.5296,17.9829,14.4311
1980-02-07 00:02:27,1,-3.616,0.932,5.334,0.601634,1,1,29032.3,27606.3,1691,0.96216643,1.2341881,106.96655,288.63452,2.74199,340.419,18.9573,20.5524,21.8927,21.3482
1980-02-07 00:03:08,1,-3.68485,0.833333,5.10505,0.819798,1,1,19560.6,18658.4,1691,0.96216834,1.2341251,106.9624,288.63428,2.1052,336.437,19.8363,11.3837,17.97,17.5507
1980-02-07 00:03:48,1,-3.82396,0.496875,4.82812,1.09601,1,1,25487.3,17593.7,1691,0.96216834,1.2341251,106.95459,288.63428,2.73924,334.094,16.8733,8.65889,20.5126,17.0426
1980-02-07 00:04:29,1,-3.906,1.113,4.498,0.62104,1,1,18907.1,17698.0,1691,0.96217018,1.2340622,106.94653,288.63403,2.40235,335.695,25.2361,9.55399,17.6673,17.0931
1980-02-07 00:05:09,1,-3.419,1.454,5.138,0.523621,1,1,28765.6,15915.4,1691,0.96217209,1.2339993,106.94263,288.63403,2.34527,346.071,23.8362,23.3066,21.7919,16.2094
1980-02-07 00:05:50,1,-3.83788,1.10833,4.56439,0.722968,1,1,21837.9,15256.7,1691,0.96217209,1.2339993,106.93481,288.63403,2.95855,337.55,27.6343,6.53531,18.9873,15.8704
1980-02-07 00:06:30,1,-3.59417,1.2466,4.91942,0.840792,1,1,18246.9,24564.3,1691,0.96217394,1.2339363,106.93066,288.63379,2.47907,344.849,25.4194,28.7483,17.3561,20.1377
1980-02-07 00:07:11,1,-4.03434,0.943434,2.85051,0.497,1,1,23806.3,29192.3,1691,0.96217585,1.2338734,106.92261,288.63354,2.51502,337.684,25.9369,-4.46153,19.8246,21.9529
1980-02-07 00:07:51,1,-4.058,0.842,3.368,0.606834,1,1,20179.4,24994.0,1691,0.96217585,1.2338734,106.9187,288.63354,2.39967,334.388,23.5928,1.88525,18.2521,20.3131
1980-02-07 00:08:32,1,-4.03605,1.02449,3.37007,0.572137,1,1,21534.1,23165.8,1691,0.96217769,1.2338104,106.91064,288.6333,2.53299,336.283,25.0035,-3.66707,18.8548,19.5561
1980-02-07 00:09:12,1,-4.09167,0.960417,3.46458,0.747653,1,1,18380.7,25489.9,1691,0.96217954,1.2337475,106.90259,288.63306,2.35828,333.545,23.1079,2.89808,17.4196,20.5136
1980-02-07 00:09:53,1,-4.08462,0.830769,3.97019,0.701335,1,1,23295.6,27909.5,1691,0.96217954,1.2337475,106.89868,288.63306,2.55059,335.745,14.4226,0.71437,19.6108,21.4651
1980-02-07 00:10:33,-1,nan,nan,nan,nan,1,4,nan,nan,1691,0.96218145,1.2336845,106.89087,288.63306,nan,nan,nan,nan,nan,nan
1980-02-07 00:11:14,1,-4.0125,1.15333,3.71667,0.64198,1,1,22631.5,18869.2,1691,0.9621833,1.2336216,106.88672,288.63281,2.17737,333.309,23.8259,8.31303,19.3292,17.6496
1980-02-07 00:11:54,-1,nan,nan,nan,nan,1,4,nan,nan,1691,0.9621833,1.2336216,106.87891,288.63281,nan,nan,nan,nan,nan,nan
1980-02-07 00:12:35,1,-3.98737,1.08105,3.55368,0.764384,1,1,21513.4,26717.3,1691,0.9621852,1.2335587,106.87476,288.63257,2.59511,331.95,21.5273,3.0627,18.8457,21.0017
1980-02-07 00:13:15,-1,nan,nan,nan,nan,1,4,nan,nan,1691,0.96218705,1.2334957,106.8667,288.63232,nan,nan,nan,nan,nan,nan
1980-02-07 00:13:56,1,-3.91262,0.980583,3.93981,0.658341,1,1,24804.8,18925.4,1691,0.96218705,1.2334957,106.85889,288.63232,2.55623,333.915,24.1546,9.38869,20.2361,17.6759
1980-02-07 00:14:36,1,-3.80729,1.30521,4.23958,0.555858,1,1,45656.2,30425.3,1691,0.96218896,1.2334328,106.85474,288.63208,2.59765,335.576,25.2696,12.9755,27.4541,22.4117
1980-02-07 00:15:17,1,-3.76796,1.35922,4.06505,0.775143,1,1,21055.5,25771.3,1691,0.96219081,1.2333698,106.84692,288.63208,2.58731,334.033,24.1091,5.69843,18.644,20.6265
1980-02-07 00:15:57,-1,nan,nan,nan,nan,1,4,nan,nan,1691,0.96219081,1.2333698,106.84302,288.63208,nan,nan,nan,nan,nan,nan
1980-02-07 00:16:38,1,-3.68,1.558,3.934,0.692156,1,1,22027.8,25489.9,1691,0.96219265,1.2333069,106.83496,288.63184,2.36844,335.849,19.7153,1.64353,19.0697,20.5136
1980-02-07 00:17:18,-1,nan,nan,nan,nan,1,4,nan,nan,1691,0.96219456,1.2332439,106.8269,288.63159,nan,nan,nan,nan,nan,nan
1980-02-07 00:17:59,1,-4.02768,1.2125,3.77857,0.574575,1,1,27778.1,24760.6,1691,0.96219456,1.2332439,106.823,288.63159,2.79458,334.045,23.7613,4.51653,21.4145,20.218
1980-02-07 00:18:39,1,-3.99896,1.09792,3.42292,0.740067,1,1,35813.2,19146.0,1691,0.96219641,1.233181,106.81494,288.63135,2.40067,339.218,23.7024,12.4648,24.3153,17.7786
1980-02-07 00:19:20,1,-3.938,1.482,3.642,0.724616,1,1,25917.9,22023.3,1691,0.96219832,1.2331181,106.81079,288.6311,2.7452,336.878,26.617,3.27753,20.6851,19.0677
1980-02-07 00:20:00,1,-3.84896,1.69688,3.83958,0.648705,1,1,18665.0,30428.3,1691,0.96220016,1.2330561,106.80298,288.6311,2.67416,338.81,33.5255,6.91524,17.5539,22.4128
1980-02-07 00:20:41,1,-3.96421,1.20526,3.95579,0.937746,1,1,28151.5,20515.0,1691,0.96220016,1.2330561,106.79907,288.6311,2.76711,342.378,31.4605,4.67106,21.558,18.4032
1980-02-07 00:21:21,1,-3.84891,1.53913,3.53478,0.920407,1,1,17107.8,26855.3,1691,0.96220207,1.2329931,106.79102,288.63086,2.47798,335.117,21.2631,3.73851,16.8056,21.0558
1980-02-07 00:22:02,1,-4.14135,1.03846,3.61923,0.595979,1,1,28878.0,22676.8,1691,0.96220392,1.2329302,106.78296,288.63062,2.82433,337.375,23.7384,6.92455,21.8344,19.3486
1980-02-07 00:22:42,1,-4.21042,0.982292,4.00417,0.625898,1,1,29214.9,20761.1,1691,0.96220392,1.2329302,106.77905,288.63062,3.01986,335.972,17.7801,2.00778,21.9614,18.5133
1980-02-07 00:23:23,1,-4.16154,1.07308,3.825,0.80769,1,1,16237.8,26521.2,1691,0.96220577,1.2328672,106.771,288.63037,2.34073,333.997,19.573,-1.6662,16.3727,20.9245
1980-02-07 00:24:03,-1,nan,nan,nan,nan,1,4,nan,nan,1691,0.96220767,1.2328043,106.76685,288.63013,nan,nan,nan,nan,nan,nan
1980-02-07 00:24:44,1,-4.1466,0.979612,3.94854,0.981384,1,1,22548.1,25056.3,1691,0.96220767,1.2328043,106.75903,288.63013,2.61986,335.763,15.4232,3.19104,19.2936,20.3384
1980-02-07 00:25:24,1,-4.1,0.841176,4.21912,1.12616,1,1,29539.3,35504.4,1691,0.96220952,1.2327414,106.75513,288.63013,3.42972,337.649,34.137,16.8226,22.083,24.2102
1980-02-07 00:26:05,1,-4.11826,0.58087,4.23478,0.851752,1,1,24527.9,19044.2,1691,0.96221143,1.2326784,106.74707,288.62988,2.30814,337.114,25.5616,7.00345,20.1228,17.7312
1980-02-07 00:26:45,1,-3.84271,0.907292,4.77917,1.3428,1,1,15543.1,23610.5,1691,0.96221143,1.2326784,106.73926,288.62988,2.79752,338.291,16.9094,17.8845,16.0187,19.7429
1980-02-07 00:27:26,1,-3.89223,0.326214,4.95534,1.28338,1,1,32562.7,12372.0,1691,0.96221328,1.2326155,106.73511,288.62964,2.09618,337.472,25.0294,29.3847,23.1856,14.2915
1980-02-07 00:28:06,1,-4.53537,-1.05986,6.27755,3.45179,1,1,60713.7,39232.1,1691,0.96221519,1.2325525,106.72705,288.62939,2.56184,399.503,-27.1961,38.6598,31.6593,25.4495
1980-02-07 00:28:47,1,-4.8125,-1.005,8.24917,1.33294,1,1,68870.5,144474.0,1691,0.96221519,1.2325525,106.72314,288.62939,4.84035,385.319,-22.0339,43.8238,33.719,48.8374
1980-02-07 00:29:27,1,-4.70244,-1.50325,8.50325,1.2675,1,1,84608.3,175197.0,1691,0.96221703,1.2324896,106.71509,288.62915,6.25203,381.045,-20.5053,45.2574,37.3736,53.7801
1980-02-07 00:30:08,1,-4.10157,-0.747244,9.11811,1.1386,1,1,59069.2,197439.0,1691,0.96221894,1.2324266,106.70728,288.62915,5.56177,399.333,-21.4558,56.5249,31.2276,57.092
1980-02-07 00:30:48,1,-4.91452,-1.32661,8.50968,1.09561,1,1,133648.0,214163.0,1691,0.96221894,1.2324266,106.70337,288.62915,7.10085,393.591,-22.5914,48.8093,46.972,59.4607
1980-02-07 00:31:29,1,-4.64146,-1.56341,8.89837,0.695535,1,1,149656.0,207268.0,1691,0.96222079,1.2323637,106.69531,288.62891,6.68708,389.772,-26.4659,46.0478,49.7055,58.4957
1980-02-07 00:32:09,1,-4.48833,-2.30667,8.18667,0.887773,1,1,131503.0,210885.0,1691,0.96222264,1.2323008,106.69116,288.62866,6.31849,395.78,-35.315,45.9829,46.5936,59.0039
1980-02-07 00:32:50,1,-4.42927,-2.00488,8.95935,0.891005,1,1,98957.7,204034.0,1691,0.96222264,1.2323008,106.68335,288.62866,6.59793,391.535,-35.5543,39.3648,40.4187,58.0376
1980-02-07 00:33:30,1,-4.63277,-2.84706,8.83782,0.960473,1,1,115581.0,177858.0,1691,0.96222454,1.2322378,106.6792,288.62842,6.67348,393.197,-34.2357,39.9082,43.6819,54.1869
1980-02-07 00:34:11,1,-4.52578,-2.89609,9.31875,0.994626,1,1,49745.9,87300.4,1691,0.96222639,1.2321749,106.67114,288.62817,5.96914,397.236,-48.8043,34.3756,28.6574,37.9635
1980-02-07 00:34:51,1,-4.27479,-2.25882,9.82857,0.912543,1,1,94934.4,200477.0,1691,0.96222639,1.2321749,106.66333,288.62817,6.08819,399.601,-31.0827,46.3663,39.5885,57.5295
1980-02-07 00:35:32,1,-3.51212,-2.24091,10.3212,1.23454,1,1,67147.3,135697.0,1691,0.9622283,1.2321119,106.65942,288.62817,5.87774,408.21,-27.9402,48.444,33.2945,47.3306
1980-02-07 00:36:12,1,-3.59244,-3.01008,10.0412,0.966842,1,1,73760.6,146711.0,1691,0.96223015,1.232049,106.65137,288.62793,6.10002,406.102,-43.477,46.3777,34.8955,49.214
1980-02-07 00:36:53,1,-3.88293,-3.95285,9.59431,0.93403,1,1,37194.3,98361.8,1691,0.96223015,1.232049,106.64746,288.62793,6.01777,401.261,-45.4836,41.7761,24.7797,40.2969
1980-02-07 00:37:33,1,-2.585,-2.5375,10.1283,1.39958,1,1,93020.1,173452.0,1691,0.96223205,1.231986,106.6394,288.62769,6.58171,406.442,-41.7117,45.1533,39.1874,53.5116
1980-02-07 00:38:14,1,-2.15433,-3.56063,10.4583,1.35131,1,1,63800.0,133831.0,1691,0.9622339,1.2319231,106.63135,288.62744,5.6998,422.204,-47.4156,48.9686,32.454,47.0041
1980-02-07 00:38:54,1,-3.46855,-2.87097,10.0645,0.766152,1,1,46160.4,95112.8,1691,0.9622339,1.2319231,106.62744,288.62744,6.17535,404.427,-37.9775,45.011,27.6053,39.6257
1980-02-07 00:39:35,1,-3.58346,-2.65118,9.88976,0.654658,1,1,69834.1,168284.0,1691,0.96223575,1.2318602,106.61938,288.6272,5.99506,399.613,-38.9103,46.878,33.9541,52.7083
1980-02-07 00:40:15,1,-3.51951,-2.6878,10.7154,0.852665,1,1,44806.0,81702.3,1691,0.96223766,1.2317982,106.61548,288.6272,5.4693,404.965,-40.2956,48.7209,27.1973,36.7261
1980-02-07 00:40:56,1,-2.93281,-2.21094,9.82891,0.910743,1,1,147134.0,198268.0,1691,0.96223766,1.2317982,106.60767,288.6272,8.17522,406.446,-38.3996,38.4689,49.285,57.2117
1980-02-07 00:41:36,1,-4.15798,-2.64034,6.61261,0.853108,1,1,209652.0,196387.0,1691,0.9622395,1.2317352,106.60352,288.62695,9.21371,395.338,-39.2545,20.3319,58.8311,56.9395
1980-02-07 00:42:17,1,-4.03111,-2.69185,6.09926,0.563851,1,1,253753.0,252542.0,1691,0.96224141,1.2316723,106.59546,288.62671,10.2293,402.009,-36.5337,17.309,64.7237,64.5691
1980-02-07 00:42:57,1,-4.84677,-2.75323,6.98871,0.778551,1,1,168062.0,213788.0,1691,0.96224141,1.2316723,106.58765,288.62671,8.43058,395.377,-40.8669,15.8037,52.6735,59.4086
1980-02-07 00:43:38,1,-4.77317,-3.11545,7.44146,0.683491,1,1,190674.0,229169.0,1691,0.96224326,1.2316093,106.5835,288.62646,9.01229,400.683,-39.2454,21.6846,56.1053,61.5085
1980-02-07 00:44:18,1,-5.0375,-3.33571,7.55,0.588731,1,1,97842.5,164525.0,1691,0.96224517,1.2315464,106.57544,288.62622,7.16988,387.382,-43.6364,20.3794,40.1903,52.1164
1980-02-07 00:44:59,1,-4.56098,-3.54797,7.91545,0.748116,1,1,101890.0,139187.0,1691,0.96224517,1.2315464,106.57153,288.62622,7.06774,394.24,-45.9885,28.4297,41.0131,47.9355
1980-02-07 00:45:39,1,-4.6479,-3.56303,8.31261,0.7648,1,1,100157.0,147489.0,1691,0.96224701,1.2314835,106.56372,288.62622,7.68713,391.093,-46.0211,21.9947,40.663,49.3444
1980-02-07 00:46:20,1,-3.60726,-3.47419,10.1,0.842332,1,1,63941.2,94425.7,1691,0.96224886,1.2314205,106.55957,288.62598,7.2031,399.56,-46.4663,30.2684,32.4899,39.4824
1980-02-07 00:47:00,1,-3.62101,-3.57143,10.0773,0.660081,1,1,47058.0,76010.6,1691,0.96225077,1.2313576,106.55151,288.62573,6.13888,402.669,-43.5506,34.3247,27.8724,35.4238
1980-02-07 00:47:41,1,-3.75645,-2.68871,10.175,0.923447,1,1,50960.3,78776.6,1691,0.96225077,1.2313576,106.5437,288.62573,5.99506,400.857,-37.051,36.6033,29.0051,36.0625
1980-02-07 00:48:21,1,-4.12101,-2.20252,10.0269,0.542021,1,1,53313.8,89989.5,1691,0.96225262,1.2312946,106.53955,288.62549,6.12936,400.86,-32.2283,38.0063,29.6673,38.5437
1980-02-07 00:49:02,1,-3.99008,-2.76489,10.0725,0.562822,1,1,56310.1,117265.0,1691,0.96225452,1.2312317,106.53149,288.62524,6.37879,398.153,-37.5405,37.0085,30.4896,43.999
1980-02-07 00:49:42,1,-4.0475,-3.06833,10.0867,0.699271,1,1,53767.1,71313.6,1691,0.96225452,1.2312317,106.52759,288.62524,6.04982,399.064,-37.9864,37.7001,29.7931,34.3118
1980-02-07 00:50:23,1,-4.25294,-2.14202,9.95294,0.845268,1,1,49136.7,75065.7,1691,0.96225637,1.2311687,106.51978,288.62524,6.27671,393.975,-32.4384,39.8279,28.4814,35.2029
1980-02-07 00:51:03,1,-4.59758,-1.48629,9.925,0.533616,1,1,47542.2,92608.5,1691,0.96225828,1.2311058,106.51172,288.625,5.98823,393.776,-31.8722,37.7945,28.0155,39.1006
1980-02-07 00:51:44,1,-4.84622,-0.928571,9.57899,0.635611,1,1,57519.8,112159.0,1691,0.96225828,1.2311058,106.50781,288.625,6.35256,389.362,-27.173,38.048,30.8153,43.0304
1980-02-07 00:52:24,1,-4.39934,-1.5053,9.73709,0.743885,1,1,72004.1,153510.0,1691,0.96226013,1.2310429,106.49976,288.62476,7.36759,392.839,-27.1424,42.1566,34.4776,50.3416
1980-02-07 00:53:05,1,-3.66167,-1.69083,10.0908,0.941911,1,1,56849.7,106695.0,1691,0.96226197,1.2309799,106.49561,288.62451,6.2873,396.54,-30.5147,44.6273,30.6353,41.9692
1980-02-07 00:53:45,1,-3.7563,-2.78403,10.1311,0.627704,1,1,52596.9,98257.1,1691,0.96226197,1.2309799,106.48779,288.62451,6.5628,394.349,-41.992,41.5883,29.4671,40.2754
1980-02-07 00:54:26,1,-3.75118,-1.9874,9.56299,2.12298,1,1,41467.4,68110.3,1691,0.96226388,1.230917,106.48364,288.62427,7.02073,397.957,-43.32,39.7599,26.1644,33.5324
1980-02-07 00:55:06,1,-4.59667,-1.2275,9.32417,0.912587,1,1,47869.1,78793.3,1691,0.96226573,1.230854,106.47583,288.62427,6.21249,387.898,-27.282,38.9622,28.1116,36.0664
1980-02-07 00:56:27,1,-4.77,-4.145,8.76667,0.996141,1,1,52255.6,66472.1,1691,0.96226764,1.2307911,106.46387,288.62402,7.76564,389.771,-37.6117,37.1051,29.3714,33.1267
1980-02-07 00:57:08,1,-4.86336,-3.70076,8.54962,1.20032,1,1,49102.7,66576.9,1691,0.96226948,1.2307281,106.45581,288.62378,6.91844,385.252,-36.1143,36.5195,28.4715,33.1528
1980-02-07 00:57:48,1,-3.94118,-1.19664,7.66807,1.04971,1,1,253560.0,229634.0,1691,0.96226948,1.2307281,106.4519,288.62378,10.1163,401.391,-22.3027,24.3929,64.6991,61.571
1980-02-07 00:58:29,1,-3.09113,-0.497581,7.05242,0.797166,1,1,249144.0,267455.0,1691,0.96227139,1.2306652,106.44385,288.62354,10.8844,405.271,-23.8112,21.8708,64.1332,66.4482
1980-02-07 00:59:09,1,-3.92609,-0.10087,8.26696,0.596847,1,1,175828.0,163986.0,1691,0.96227324,1.2306032,106.43579,288.62329,9.15128,398.62,-23.0893,29.9804,53.8767,52.0309
1980-02-07 00:59:50,1,-3.575,1.11136,7.32273,0.47428,1,1,264017.0,241430.0,1691,0.96227324,1.2306023,106.43188,288.62329,10.4479,404.8,-12.3084,24.5207,66.0197,63.1325
1980-02-07 01:00:30,1,-3.91513,1.64706,7.51176,0.500863,1,1,192121.0,211507.0,1691,0.96227515,1.2305403,106.42407,288.62329,9.83696,395.081,-6.97903,26.6957,56.3177,59.0909
1980-02-07 01:01:11,1,-3.49024,0.766667,7.30732,1.2533,1,1,185564.0,176674.0,1691,0.962277,1.2304773,106.41992,288.62305,10.0414,403.281,-10.318,23.8604,55.3484,54.0063
1980-02-07 01:01:51,1,-2.53966,-0.27931,7.50086,0.68278,1,1,178860.0,154281.0,1691,0.962277,1.2304773,106.41211,288.62305,10.5151,401.164,-15.4126,27.2582,54.3393,50.4678
1980-02-07 01:02:32,1,-2.77899,1.29244,7.55882,1.01248,1,1,203526.0,210975.0,1691,0.96227884,1.2304144,106.40796,288.6228,11.1433,407.843,-4.2826,19.9446,57.9653,59.0164
1980-02-07 01:03:12,1,0.790551,-2.67323,9.03307,2.06413,1,1,74472.1,108200.0,1691,0.96228075,1.2303514,106.3999,288.62256,9.25073,443.718,-40.6987,19.0333,35.0635,42.2641
1980-02-07 01:03:53,1,0.0765152,-1.56515,9.57045,1.95117,1,1,56479.1,106454.0,1691,0.96228075,1.2303514,106.39209,288.62256,8.88542,430.492,-30.7395,30.0088,30.5353,41.9217
1980-02-07 01:04:33,1,-0.945528,-0.0837398,8.94309,0.599418,1,1,213587.0,202750.0,1691,0.9622826,1.2302885,106.38794,288.62231,11.4655,420.499,-16.2703,27.7172,59.3807,57.8546
1980-02-07 01:05:14,1,-1.66094,0.229687,8.65938,0.697992,1,1,227780.0,203950.0,1691,0.96228445,1.2302256,106.38013,288.62231,10.8114,417.879,-15.584,23.8197,61.3219,58.0256
1980-02-07 01:05:54,1,-1.37806,1.39419,8.72581,0.954064,1,1,196284.0,204706.0,1691,0.96228445,1.2302256,106.37622,288.62231,10.4307,416.911,-8.49192,24.5445,56.9246,58.133
1980-02-07 01:06:35,1,-3.73445,1.11345,7.58067,0.556042,1,1,166337.0,196172.0,1691,0.96228635,1.2301626,106.36816,288.62207,10.9339,404.37,-9.69621,18.2456,52.4025,56.9084
1980-02-07 01:07:15,1,-3.33534,1.45172,7.72586,0.519094,1,1,206150.0,203476.0,1691,0.9622882,1.2300997,106.36401,288.62183,11.1983,406.068,-10.4133,17.6865,58.3378,57.9581
1980-02-07 01:07:56,1,-3.12101,2.34538,8.2479,0.780914,1,1,180786.0,185940.0,1691,0.9622882,1.2300997,106.3562,288.62183,9.99771,407.203,1.25986,17.465,54.6311,55.4045
1980-02-07 01:08:36,1,-2.36379,2.39914,7.9819,0.722005,1,1,182288.0,194847.0,1691,0.96229005,1.2300367,106.34814,288.62158,10.7022,410.462,1.179,16.4155,54.8576,56.7159
1980-02-07 01:09:17,1,-2.14331,1.15197,9.09213,0.720569,1,1,183006.0,168842.0,1691,0.96229196,1.2299738,106.34399,288.62134,9.74998,411.755,-7.54051,27.9754,54.9656,52.7956
1980-02-07 01:09:57,1,-3.3513,2.4,8.73043,1.56275,1,1,185653.0,167911.0,1691,0.96229196,1.2299738,106.33618,288.62134,10.0218,409.446,-6.35786,24.3449,55.3616,52.6499
1980-02-07 01:10:38,1,-3.53667,3.0475,8.6475,0.672788,1,1,155449.0,160333.0,1691,0.9622938,1.2299109,106.33228,288.62134,10.4079,403.507,2.14653,21.4397,50.6585,51.4481
1980-02-07 01:11:18,1,-3.88397,2.90687,8.58779,0.746087,1,1,121537.0,134947.0,1691,0.96229565,1.2298479,106.32422,288.62109,9.79641,401.206,6.28233,23.8607,44.7931,47.1997
1980-02-07 01:11:59,1,-3.43468,3.46774,8.90968,0.538069,1,1,150265.0,154667.0,1691,0.96229565,1.2298479,106.31641,288.62109,9.85688,406.317,4.29009,21.1258,49.8066,50.5308
1980-02-07 01:12:39,1,-3.00924,2.78151,8.59748,0.750061,1,1,167112.0,173086.0,1691,0.96229756,1.229785,106.31226,288.62085,10.6737,408.981,0.530824,24.8464,52.5245,53.455
1980-02-07 01:13:20,1,-3.60813,2.3065,8.65772,0.904221,1,1,167459.0,160969.0,1691,0.96229941,1.229722,106.3042,288.62061,9.67606,406.642,-8.0229,23.9889,52.579,51.5501
1980-02-07 01:14:00,1,-2.95917,1.95833,8.89583,0.961637,1,1,167281.0,174993.0,1691,0.96230125,1.2296591,106.30005,288.62036,10.9209,406.514,-4.20165,25.0442,52.551,53.7487
1980-02-07 01:14:41,1,-2.52126,1.49055,8.84173,0.875251,1,1,181805.0,188416.0,1691,0.96230125,1.2296591,106.29224,288.62036,10.8353,412.613,-16.0959,27.2229,54.7848,55.7721
1980-02-07 01:15:21,1,-3.1374,1.9878,8.58455,0.683251,1,1,185225.0,179063.0,1691,0.96230316,1.2295971,106.28833,288.62036,10.5697,405.708,-2.2218,23.1591,55.2978,54.3701
1980-02-07 01:16:02,1,-3.57016,1.75887,7.12339,0.639821,1,1,172793.0,194989.0,1691,0.96230501,1.2295341,106.28027,288.62012,10.2167,403.611,-5.09366,17.0813,53.4098,56.7366
1980-02-07 01:16:42,1,-4.67983,0.912605,6.54202,0.791513,1,1,179418.0,176976.0,1691,0.96230501,1.2295341,106.27246,288.62012,10.0902,393.335,-16.0102,9.90201,54.4241,54.0524
1980-02-07 01:17:23,1,-5.85833,2.18417,5.945,0.637237,1,1,186648.0,174124.0,1691,0.96230686,1.2294712,106.26831,288.61987,10.084,391.666,-6.75791,5.41352,55.5098,53.6151
1980-02-07 01:18:44,1,-4.38741,3.14296,6.10593,0.781237,1,1,158805.0,212022.0,1691,0.96230876,1.2294083,106.25635,288.61963,10.5093,396.763,1.44205,1.27814,51.2024,59.1627
1980-02-07 01:19:24,1,-4.83966,3.12672,5.90086,0.655446,1,1,171273.0,189474.0,1691,0.96231061,1.2293453,106.24829,288.61938,10.7739,393.398,1.81719,2.2544,53.1743,55.9285
1980-02-07 01:20:05,1,-5.6,3.29076,5.85882,0.535057,1,1,126355.0,163727.0,1691,0.96231252,1.2292824,106.24048,288.61938,9.37203,390.248,5.15009,7.80153,45.6725,51.9897
1980-02-07 01:20:45,1,-5.25345,3.40517,5.77931,0.505622,1,1,164964.0,240660.0,1691,0.96231252,1.2292824,106.23657,288.61938,10.8831,394.223,2.13082,0.171561,52.1858,63.0318
1980-02-07 01:21:26,1,-5.17479,3.16471,5.19244,0.578751,1,1,161686.0,198161.0,1691,0.96231437,1.2292194,106.22852,288.61914,9.75385,393.423,1.33767,-1.02837,51.6648,57.1962
1980-02-07 01:22:06,1,-5.55304,3.4887,5.51652,0.352634,1,1,154206.0,218872.0,1691,0.96231622,1.2291565,106.22437,288.6189,10.3293,394.404,-0.60075,-0.172147,50.4555,60.1109
1980-02-07 01:22:47,1,-5.29914,3.57328,5.10603,0.493779,1,1,145487.0,177792.0,1691,0.96231622,1.2291565,106.21655,288.6189,9.611,387.909,2.94261,-0.364574,49.0084,54.1769
1980-02-07 01:23:27,1,-5.02362,3.46772,4.97402,0.39276,1,1,161615.0,186794.0,1691,0.96231812,1.2290936,106.2124,288.61865,10.1679,394.87,2.55879,-2.81615,51.6534,55.5315
1980-02-07 01:24:08,1,-4.77833,3.34333,5.01833,0.582223,1,1,167690.0,198925.0,1691,0.96231997,1.2290306,106.20435,288.61841,10.5885,391.533,1.65459,1.36914,52.6153,57.3063
1980-02-07 01:24:48,1,-4.16503,3.01043,4.93067,1.19495,1,1,166244.0,197324.0,1691,0.96231997,1.2290306,106.19653,288.61841,10.6051,392.313,0.605329,0.8239,52.3879,57.0753
1980-02-07 01:25:29,1,-4.90945,3.24409,5.04252,0.493996,1,1,177062.0,209122.0,1691,0.96232182,1.2289677,106.19263,288.61841,10.7791,392.027,1.03793,1.28343,54.0655,58.7568
1980-02-07 01:26:09,1,-4.60086,2.76466,4.67759,0.556131,1,1,181729.0,212734.0,1691,0.96232373,1.2289047,106.18457,288.61816,11.2025,395.636,2.23572,2.86527,54.7735,59.262
1980-02-07 01:26:50,1,-4.79748,3.07311,4.63025,0.522553,1,1,170881.0,198614.0,1691,0.96232373,1.2289047,106.18066,288.61816,10.7263,392.598,-1.57651,2.59383,53.1135,57.2615
1980-02-07 01:27:30,1,-4.64087,3.32087,4.66087,0.480233,1,1,186427.0,214389.0,1691,0.96232557,1.2288418,106.17261,288.61792,11.0477,392.464,-0.956879,2.50449,55.477,59.4921
1980-02-07 01:28:11,1,-4.47419,3.2371,4.69032,0.492158,1,1,161046.0,171998.0,1691,0.96232742,1.2287788,106.16846,288.61768,10.4126,391.807,3.20956,2.11314,51.5624,53.2868
1980-02-07 01:28:51,1,-4.34595,3.27207,4.3982,0.532026,1,1,156178.0,185990.0,1691,0.96232742,1.2287788,106.16064,288.61768,10.2394,390.073,2.01086,2.70546,50.777,55.4119
1980-02-07 01:29:32,1,-4.56897,3.38621,5.04483,0.428642,1,1,161729.0,187112.0,1691,0.96232933,1.2287159,106.15259,288.61743,10.3611,391.223,2.2874,2.891,51.6715,55.5787
1980-02-07 01:30:12,1,-4.63153,3.38739,4.79099,0.602644,1,1,148534.0,189436.0,1691,0.96233118,1.2286539,106.14868,288.61743,10.4156,390.925,6.05071,0.923402,49.5189,55.9228
1980-02-07 01:30:53,1,-5.14622,3.59664,4.87227,0.478381,1,1,178041.0,192104.0,1691,0.96233118,1.2286539,106.14087,288.61743,9.82445,389.616,2.2696,0.33166,54.2147,56.3152
1980-02-07 01:31:33,1,-5.08879,3.30431,4.99655,0.402384,1,1,185219.0,184804.0,1691,0.96233302,1.228591,106.13672,288.61719,10.0881,389.536,8.2741,2.34016,55.2968,55.2349
1980-02-07 01:32:14,1,-4.9916,3.7084,4.67059,0.627589,1,1,180542.0,213779.0,1691,0.96233493,1.228528,106.12866,288.61694,10.247,393.966,2.76864,2.26852,54.5942,59.4074
1980-02-07 01:32:54,1,-5.25089,3.91964,4.91071,0.428492,1,1,144348.0,152009.0,1691,0.96233493,1.228528,106.12085,288.61694,10.3411,386.562,5.60018,0.640606,48.8162,50.0947
1980-02-07 01:33:35,1,-4.70522,4.65739,4.21739,1.07495,1,1,43988.8,54665.7,1691,0.96233678,1.2284651,106.1167,288.6167,7.74842,384.207,9.67611,-0.295327,26.9482,30.0411
1980-02-07 01:34:15,1,-4.64522,4.9513,4.73391,0.773641,1,1,36301.1,65949.7,1691,0.96233863,1.2284021,106.10864,288.61646,7.63457,389.31,18.9059,-0.298047,24.4804,32.9962
1980-02-07 01:34:56,1,-4.49919,5.28065,2.80323,0.860618,1,1,52897.1,56978.1,1691,0.96233863,1.2284021,106.10474,288.61646,8.22562,389.443,14.4149,-16.1541,29.5511,30.6699
1980-02-07 01:35:36,1,-5.47652,3.68087,4.60174,0.503416,1,1,134716.0,149987.0,1691,0.96234053,1.2283392,106.09692,288.61646,10.4475,386.164,5.04687,1.29444,47.1594,49.7605
1980-02-07 01:36:17,1,-5.17647,4.01765,4.80336,0.410838,1,1,151470.0,162805.0,1691,0.96234238,1.2282763,106.09277,288.61621,10.1272,387.644,5.31246,2.19403,50.0059,51.8432